EA3KZ-1 Weather Reports


time (UTC)temp
F
wind
direction
speed
knots
gust
knots
rain 1hr
in
rain 24hr
in
rain mn
in
humidity
%
barometer
mb
20260510084604 61 126 4.3 11.3 0.00 0.43 0.00 82 1008.0
20260510083601 61 120 3.5 9.6 0.00 0.43 0.00 82 1008.1
20260510082559 60 128 3.5 7.8 0.00 0.43 0.00 83 1008.1
20260510081556 60 131 4.3 7.8 0.00 0.43 0.00 83 1008.0
20260510080553 59 124 6.1 11.3 0.00 0.43 0.00 84 1007.8
20260510075551 58 123 4.3 9.6 0.00 0.43 0.00 84 1007.9
20260510074548 58 135 5.2 9.6 0.00 0.43 0.00 84 1007.8
20260510073546 58 119 4.3 9.6 0.00 0.43 0.00 85 1007.8
20260510072543 58 172 5.2 9.6 0.00 0.43 0.00 85 1007.6
20260510071540 58 154 2.6 6.1 0.00 0.43 0.00 86 1007.6
20260510070538 57 137 3.5 7.8 0.00 0.43 0.00 85 1007.4
20260510065535 57 177 3.5 6.1 0.00 0.43 0.00 86 1007.4
20260510064533 57 144 1.7 3.5 0.00 0.43 0.00 89 1007.5
20260510063530 56 101 0.9 3.5 0.00 0.43 0.00 90 1007.5
20260510062527 56 101 0.9 1.7 0.00 0.43 0.00 91 1007.4
20260510061525 55 0.0 1.7 0.00 0.43 0.00 92 1007.4
20260510060522 54 229 0.9 1.7 0.00 0.43 0.00 94 1007.3
20260510055520 53 218 0.0 1.7 0.00 0.43 0.00 95 1007.3
20260510054517 52 158 0.0 1.7 0.00 0.43 0.00 95 1007.4
20260510053615 52 0.0 1.7 0.00 0.43 0.00 95 1007.4
20260510052612 52 152 0.0 1.7 0.00 0.43 0.00 95 1007.3
20260510050607 52 163 0.9 3.5 0.00 0.43 0.00 95 1007.1
20260510045604 51 215 0.9 1.7 0.00 0.43 0.00 95 1007.1
20260510044602 51 227 1.7 5.2 0.00 0.43 0.00 95 1007.3
20260510043559 52 234 0.9 1.7 0.00 0.43 0.00 95 1007.3
20260510042556 52 240 0.0 1.7 0.00 0.43 0.00 95 1007.4
20260510041554 52 229 1.7 3.5 0.00 0.43 0.00 95 1007.3
20260510040551 52 227 0.9 3.5 0.00 0.43 0.00 96 1007.3
20260510035548 52 232 1.7 3.5 0.00 0.43 0.00 96 1007.4
20260510034546 52 226 0.9 3.5 0.00 0.43 0.00 96 1007.5
20260510033543 52 235 0.9 1.7 0.00 0.43 0.00 96 1007.4
20260510032541 52 0.0 1.7 0.00 0.43 0.00 96 1007.5
20260510031538 52 0.0 0.0 0.00 0.43 0.00 95 1007.4
20260510030536 52 0.0 0.0 0.00 0.43 0.00 95 1007.5
20260510025533 52 0.0 1.7 0.00 0.43 0.00 95 1007.7
20260510024530 53 276 0.9 1.7 0.00 0.43 0.00 95 1007.6
20260510023528 52 0.0 1.7 0.00 0.43 0.00 95 1007.9
20260510022525 52 180 0.0 1.7 0.00 0.43 0.00 95 1008.0
20260510021523 53 189 0.9 1.7 0.00 0.43 0.00 95 1007.8
20260510020520 53 180 0.9 3.5 0.00 0.43 0.00 94 1007.9
20260510015517 53 205 0.9 3.5 0.00 0.43 0.00 94 1007.7
20260510014515 53 194 0.9 1.7 0.00 0.43 0.00 93 1007.7
20260510013612 53 213 0.9 1.7 0.00 0.43 0.00 93 1007.7
20260510012610 53 222 0.9 1.7 0.00 0.43 0.00 94 1007.6
20260510011607 54 251 0.9 1.7 0.00 0.43 0.00 94 1007.8
20260510010604 53 225 0.0 1.7 0.00 0.43 0.00 95 1007.6
20260510005602 53 256 0.9 1.7 0.00 0.43 0.00 95 1007.9
20260510004559 53 270 0.0 1.7 0.00 0.43 0.00 95 1007.9
20260510003557 53 229 0.9 1.7 0.00 0.43 0.00 95 1008.2
20260510002554 53 193 0.9 1.7 0.00 0.43 0.00 94 1008.1
20260510001551 54 203 0.0 1.7 0.00 0.43 0.00 94 1008.1
20260510000549 54 225 1.7 3.5 0.00 0.43 0.00 95 1008.4
20260509235546 54 225 2.6 3.5 0.00 0.43 0.43 95 1008.9
20260509234544 54 203 0.9 3.5 0.00 0.43 0.43 95 1008.8
20260509233541 55 230 1.7 3.5 0.00 0.43 0.43 95 1008.8
20260509232539 55 229 2.6 3.5 0.00 0.43 0.43 95 1008.8
20260509231536 55 206 1.7 3.5 0.00 0.43 0.43 95 1008.9
20260509230533 55 203 1.7 3.5 0.00 0.43 0.43 96 1008.9
20260509225531 55 232 1.7 3.5 0.00 0.43 0.43 96 1009.0
20260509224528 55 237 1.7 3.5 0.00 0.43 0.43 96 1009.0
20260509223525 55 170 1.7 3.5 0.00 0.43 0.43 96 1009.0
20260509222523 55 226 0.9 3.5 0.00 0.43 0.43 96 1008.9
20260509221520 55 212 1.7 3.5 0.00 0.43 0.43 96 1008.9
20260509220518 55 206 1.7 3.5 0.00 0.43 0.43 96 1008.9
20260509215515 55 195 0.9 3.5 0.00 0.43 0.43 96 1008.8
20260509214612 55 212 0.0 3.5 0.00 0.43 0.43 96 1008.9
20260509213610 55 180 0.9 1.7 0.00 0.43 0.43 96 1008.8
20260509212607 55 232 0.9 3.5 0.00 0.43 0.43 96 1008.7
20260509211605 55 235 1.7 3.5 0.00 0.43 0.43 97 1008.8
20260509210602 55 241 1.7 3.5 0.00 0.43 0.43 97 1008.7
20260509205559 55 223 0.9 3.5 0.00 0.43 0.43 97 1008.8
20260509204557 55 179 0.9 1.7 0.00 0.43 0.43 97 1008.7
20260509203554 55 194 1.7 1.7 0.00 0.43 0.43 96 1008.5
20260509202552 56 116 0.9 1.7 0.00 0.43 0.43 96 1008.3
20260509201549 55 0.0 0.0 0.00 0.43 0.43 96 1008.1
20260509200546 56 0.0 1.7 0.00 0.43 0.43 96 1008.0
20260509195544 56 113 0.0 1.7 0.00 0.43 0.43 96 1007.8
20260509194541 56 0.0 1.7 0.00 0.43 0.43 96 1007.7
20260509193539 56 140 0.9 1.7 0.00 0.43 0.43 96 1007.6
20260509192536 56 136 1.7 3.5 0.00 0.43 0.43 96 1007.5
20260509191533 56 148 1.7 3.5 0.00 0.43 0.43 96 1007.4
20260509190531 56 128 0.9 3.5 0.00 0.43 0.43 95 1007.0
20260509185528 56 102 1.7 3.5 0.00 0.43 0.43 95 1006.9
20260509184526 57 93 0.9 1.7 0.00 0.43 0.43 94 1006.6
20260509183523 57 37 0.9 3.5 0.01 0.43 0.43 93 1006.5
20260509182520 57 130 1.7 3.5 0.01 0.43 0.43 91 1006.5
20260509181518 57 90 0.0 1.7 0.04 0.43 0.43 89 1006.0
20260509180515 57 235 0.9 3.5 0.05 0.43 0.43 88 1005.8
20260509175613 56 235 1.7 5.2 0.06 0.43 0.43 89 1005.7
20260509174610 55 259 2.6 7.8 0.08 0.43 0.43 93 1005.5
20260509173607 55 295 1.7 7.8 0.11 0.41 0.41 95 1005.6
20260509172605 55 270 3.5 7.8 0.17 0.41 0.41 96 1005.5
20260509171602 56 275 3.5 9.6 0.15 0.39 0.39 96 1006.0
20260509170600 56 289 4.3 7.0 0.15 0.38 0.38 96 1006.3
20260509165557 56 297 2.6 6.1 0.15 0.37 0.37 97 1006.8
20260509164554 56 287 1.7 3.5 0.15 0.34 0.34 96 1007.3
20260509163552 56 293 0.0 1.7 0.17 0.31 0.31 96 1007.7
20260509162549 56 158 0.0 1.7 0.13 0.25 0.25 96 1008.1
20260509161547 57 136 0.9 1.7 0.13 0.24 0.24 96 1008.4
20260509160544 57 122 0.9 1.7 0.13 0.22 0.22 96 1008.5
20260509155541 57 123 0.9 3.5 0.13 0.21 0.21 95 1008.7
20260509154539 57 145 2.6 6.1 0.12 0.19 0.19 94 1008.7
20260509153536 57 121 3.5 7.0 0.09 0.14 0.14 93 1008.7
20260509152533 57 113 2.6 7.0 0.09 0.12 0.12 93 1008.1
20260509151531 57 272 0.9 3.5 0.09 0.11 0.11 93 1006.5
20260509150528 57 313 2.6 5.2 0.09 0.09 0.09 92 1006.0
20260509145526 57 307 5.2 7.8 0.08 0.08 0.08 92 1006.2
20260509144523 57 297 4.3 7.0 0.07 0.07 0.07 92 1006.1
20260509143520 57 348 6.1 12.2 0.05 0.05 0.05 90 1006.5
20260509142518 58 331 5.2 9.6 0.02 0.02 0.02 88 1007.1
20260509141515 59 19 5.2 9.6 0.01 0.01 0.01 86 1007.4
20260509140613 60 354 4.3 11.3 0.00 0.00 0.00 82 1007.8
20260509135610 61 36 6.1 13.9 0.00 0.00 0.00 77 1007.9
20260509134607 62 2 3.5 7.0 0.00 0.00 0.00 74 1008.1
20260509133605 62 344 5.2 9.6 0.00 0.00 0.00 75 1008.1
20260509132602 62 1 3.5 7.0 0.00 0.00 0.00 77 1008.1
20260509131600 62 16 2.6 6.1 0.00 0.00 0.00 78 1008.0
20260509130557 62 299 2.6 7.0 0.00 0.00 0.00 77 1007.6
20260509125554 62 12 3.5 9.6 0.00 0.00 0.00 75 1007.4
20260509124552 62 350 5.2 11.3 0.00 0.00 0.00 73 1007.2
20260509123549 62 358 7.8 13.0 0.00 0.00 0.00 72 1007.3
20260509122546 63 22 5.2 9.6 0.00 0.00 0.00 70 1007.8
20260509121544 62 29 4.3 9.6 0.00 0.00 0.00 71 1008.1
20260509120541 62 27 7.0 14.8 0.00 0.00 0.00 72 1008.5
20260509115539 63 39 4.3 9.6 0.00 0.00 0.00 73 1009.0
20260509114536 63 355 4.3 7.8 0.00 0.00 0.00 72 1009.0
20260509113533 63 32 4.3 9.6 0.00 0.00 0.00 75 1009.1
20260509112531 62 4 4.3 11.3 0.00 0.00 0.00 78 1009.4
20260509111528 62 15 1.7 7.8 0.00 0.00 0.00 82 1009.3
20260509110526 62 52 1.7 5.2 0.00 0.00 0.00 80 1009.0
20260509105524 62 50 4.3 9.6 0.00 0.00 0.00 77 1009.1
20260509104521 63 22 3.5 9.6 0.00 0.00 0.00 77 1009.1
20260509103519 63 32 2.6 6.1 0.00 0.00 0.00 76 1009.3
20260509102516 63 30 4.3 9.6 0.00 0.00 0.00 76 1009.2
20260509101614 63 342 5.2 9.6 0.00 0.00 0.00 75 1009.0
20260509100612 63 23 5.2 11.3 0.00 0.00 0.00 78 1009.1
20260509095609 62 12 5.2 9.6 0.00 0.00 0.00 77 1009.0
20260509094607 62 11 5.2 9.6 0.00 0.00 0.00 78 1008.9
20260509093604 63 328 2.6 7.0 0.00 0.00 0.00 77 1008.7
20260509092602 62 13 5.2 9.6 0.00 0.00 0.00 78 1008.7
20260509091559 62 315 4.3 9.6 0.00 0.00 0.00 78 1008.8
20260509090557 61 345 5.2 9.6 0.00 0.00 0.00 79 1008.6
20260509085554 61 339 5.2 9.6 0.00 0.00 0.00 78 1008.5